TimeEDT,TemperatureF,Dew PointF,Humidity,Sea Level PressureIn,VisibilityMPH,Wind Direction,Wind SpeedMPH,Gust SpeedMPH,PrecipitationIn,Events,Conditions,WindDirDegrees,DateUTC
12:15 AM,46.4,32.0,57,30.22,10.0,Calm,Calm,-,N/A,,Clear,0,2013-03-11 04:15:00
12:35 AM,46.4,33.8,62,30.21,10.0,East,5.8,-,N/A,,Clear,90,2013-03-11 04:35:00
12:55 AM,46.4,32.0,57,30.20,10.0,East,5.8,-,N/A,,Clear,80,2013-03-11 04:55:00
1:15 AM,46.4,32.0,57,30.20,10.0,East,5.8,-,N/A,,Clear,90,2013-03-11 05:15:00
1:35 AM,46.4,33.8,62,30.20,10.0,East,5.8,-,N/A,,Clear,90,2013-03-11 05:35:00
1:55 AM,46.4,35.6,66,30.19,10.0,East,5.8,-,N/A,,Clear,80,2013-03-11 05:55:00
2:15 AM,46.4,35.6,66,30.19,10.0,East,5.8,-,N/A,,Clear,90,2013-03-11 06:15:00
2:55 AM,46.4,37.4,71,30.16,10.0,East,5.8,-,N/A,,Clear,90,2013-03-11 06:55:00
3:15 AM,46.4,37.4,71,30.16,10.0,East,6.9,-,N/A,,Clear,90,2013-03-11 07:15:00
3:55 AM,44.6,37.4,76,30.14,10.0,East,3.5,-,N/A,,Clear,80,2013-03-11 07:55:00
4:15 AM,44.6,37.4,76,30.14,10.0,East,4.6,-,N/A,,Clear,80,2013-03-11 08:15:00
4:55 AM,46.4,42.8,87,30.13,10.0,East,5.8,-,N/A,,Clear,90,2013-03-11 08:55:00
5:15 AM,46.4,42.8,87,30.12,10.0,East,4.6,-,N/A,,Clear,90,2013-03-11 09:15:00
5:35 AM,46.4,44.6,93,30.13,10.0,East,5.8,-,N/A,,Scattered Clouds,90,2013-03-11 09:35:00
5:55 AM,46.4,44.6,93,30.12,10.0,East,5.8,-,N/A,,Mostly Cloudy,90,2013-03-11 09:55:00
6:35 AM,46.4,46.4,100,30.12,10.0,East,6.9,-,N/A,,Clear,90,2013-03-11 10:35:00
6:55 AM,46.4,46.4,100,30.11,10.0,East,5.8,-,N/A,,Clear,90,2013-03-11 10:55:00
7:15 AM,46.4,46.4,100,30.12,10.0,East,3.5,-,N/A,,Scattered Clouds,80,2013-03-11 11:15:00
7:35 AM,46.4,46.4,100,30.12,10.0,Calm,Calm,-,N/A,,Mostly Cloudy,0,2013-03-11 11:35:00
7:55 AM,46.4,46.4,100,30.11,10.0,East,4.6,-,N/A,,Overcast,90,2013-03-11 11:55:00
8:15 AM,50.0,50.0,100,30.11,10.0,East,6.9,-,N/A,,Overcast,100,2013-03-11 12:15:00
8:35 AM,51.8,51.8,100,30.11,10.0,East,5.8,-,N/A,,Scattered Clouds,90,2013-03-11 12:35:00
8:55 AM,53.6,51.8,94,30.11,10.0,East,5.8,-,N/A,,Clear,100,2013-03-11 12:55:00
9:15 AM,55.4,51.8,88,30.12,10.0,ESE,4.6,-,N/A,,Clear,120,2013-03-11 13:15:00
9:55 AM,59.0,51.8,77,30.13,10.0,SE,3.5,-,N/A,,Mostly Cloudy,140,2013-03-11 13:55:00
10:15 AM,60.8,53.6,77,30.12,10.0,ESE,4.6,-,N/A,,Overcast,120,2013-03-11 14:15:00
10:55 AM,62.6,51.8,68,30.12,10.0,South,6.9,-,N/A,,Overcast,180,2013-03-11 14:55:00
11:15 AM,64.4,51.8,64,30.12,10.0,South,8.1,-,N/A,,Overcast,180,2013-03-11 15:15:00
11:35 AM,66.2,51.8,60,30.11,10.0,SSE,9.2,-,N/A,,Overcast,160,2013-03-11 15:35:00
11:55 AM,68.0,50.0,52,30.11,10.0,South,6.9,-,N/A,,Overcast,170,2013-03-11 15:55:00
12:15 PM,68.0,50.0,52,30.11,10.0,SSE,11.5,-,N/A,,Overcast,150,2013-03-11 16:15:00
12:35 PM,68.0,50.0,52,30.09,10.0,South,10.4,19.6,N/A,,Overcast,170,2013-03-11 16:35:00
12:55 PM,69.8,50.0,49,30.09,10.0,SSE,13.8,20.7,N/A,,Overcast,160,2013-03-11 16:55:00
1:15 PM,69.8,48.2,46,30.08,10.0,South,13.8,-,N/A,,Overcast,180,2013-03-11 17:15:00
1:35 PM,69.8,48.2,46,30.07,10.0,SSE,11.5,18.4,N/A,,Overcast,160,2013-03-11 17:35:00
1:55 PM,71.6,46.4,41,30.06,10.0,SSE,16.1,19.6,N/A,,Overcast,150,2013-03-11 17:55:00
2:15 PM,69.8,48.2,46,30.04,10.0,South,15.0,20.7,N/A,,Overcast,180,2013-03-11 18:15:00
2:35 PM,69.8,48.2,46,30.03,10.0,South,13.8,21.9,N/A,,Overcast,170,2013-03-11 18:35:00
2:55 PM,69.8,50.0,49,30.02,10.0,South,16.1,21.9,N/A,,Overcast,180,2013-03-11 18:55:00
3:15 PM,69.8,50.0,49,30.01,10.0,SSE,16.1,20.7,N/A,,Overcast,150,2013-03-11 19:15:00
3:55 PM,69.8,50.0,49,29.99,10.0,SSE,10.4,18.4,N/A,,Overcast,160,2013-03-11 19:55:00
4:15 PM,69.8,50.0,49,29.99,10.0,SSE,13.8,19.6,N/A,,Overcast,150,2013-03-11 20:15:00
4:35 PM,69.8,50.0,49,29.99,10.0,South,11.5,16.1,N/A,,Overcast,170,2013-03-11 20:35:00
4:55 PM,69.8,50.0,49,29.98,10.0,SSE,9.2,-,N/A,,Overcast,160,2013-03-11 20:55:00
5:15 PM,69.8,51.8,53,29.98,10.0,SSE,11.5,17.3,N/A,,Overcast,150,2013-03-11 21:15:00
5:35 PM,69.8,50.0,49,29.97,10.0,South,12.7,19.6,N/A,,Overcast,170,2013-03-11 21:35:00
5:55 PM,69.8,51.8,53,29.97,10.0,SE,15.0,24.2,N/A,,Mostly Cloudy,140,2013-03-11 21:55:00
6:15 PM,68.0,51.8,56,29.97,10.0,SSE,12.7,17.3,N/A,,Scattered Clouds,150,2013-03-11 22:15:00
6:35 PM,66.2,51.8,60,29.97,10.0,SSE,9.2,-,N/A,,Scattered Clouds,150,2013-03-11 22:35:00
6:55 PM,64.4,51.8,64,29.96,10.0,SE,9.2,-,N/A,,Clear,140,2013-03-11 22:55:00
7:15 PM,64.4,53.6,68,29.96,10.0,SSE,5.8,-,N/A,,Clear,150,2013-03-11 23:15:00
7:35 PM,62.6,53.6,72,29.93,10.0,ESE,11.5,-,N/A,,Clear,120,2013-03-11 23:35:00
7:55 PM,62.6,53.6,72,29.93,10.0,SE,9.2,-,N/A,,Clear,140,2013-03-11 23:55:00
8:15 PM,62.6,53.6,72,29.93,10.0,SSE,9.2,-,N/A,,Clear,150,2013-03-12 00:15:00
8:35 PM,62.6,53.6,72,29.93,10.0,SSE,8.1,-,N/A,,Clear,150,2013-03-12 00:35:00
8:55 PM,62.6,53.6,72,29.94,10.0,SSE,8.1,-,N/A,,Clear,150,2013-03-12 00:55:00
9:15 PM,62.6,53.6,72,29.93,10.0,SE,8.1,-,N/A,,Clear,140,2013-03-12 01:15:00
9:35 PM,62.6,53.6,72,29.94,10.0,SSE,8.1,-,N/A,,Clear,150,2013-03-12 01:35:00
9:55 PM,62.6,55.4,77,29.92,10.0,SE,8.1,-,N/A,,Clear,130,2013-03-12 01:55:00
10:35 PM,62.6,55.4,77,29.92,10.0,SE,8.1,-,N/A,,Clear,140,2013-03-12 02:35:00
10:55 PM,62.6,57.2,82,29.93,10.0,SE,5.8,-,N/A,,Clear,140,2013-03-12 02:55:00
11:15 PM,62.6,59.0,88,29.93,10.0,SSE,6.9,-,N/A,,Scattered Clouds,150,2013-03-12 03:15:00
11:55 PM,62.6,59.0,88,29.93,10.0,SSE,6.9,-,N/A,,Scattered Clouds,150,2013-03-12 03:55:00